[[{"header":{"parameterUnit":"m.s-1","parameterCategory":1,"la1":30.2992,"la2":30.254,"lo1":-89.0895,"lo2":-89.0443,"dy":0.0025,"dx":0.0025,"nx":19,"ny":19,"refTime":"2026-03-06T03:00:00:Z","depth":0,"parameterNumber":2,"parameterNumberName":"U-component_of_WINDS"},"data":[0,0,0,-3.5669,-3.5669,-3.5676,-3.5676,-3.5694,-3.5694,0,0,0,0,0,0,0,0,0,0,0,-3.5671,-3.5671,-3.5669,-3.5669,-3.5676,-3.5676,-3.5694,-3.5694,0,0,0,0,0,0,0,0,0,0,0,-3.5671,-3.5671,-3.5672,-3.5669,-3.5676,-3.5676,-3.5694,-3.5686,0,0,0,0,0,0,0,0,0,0,-3.5678,-3.5683,-3.5671,-3.5672,-3.567,-3.5676,-3.5676,-3.5685,-3.5686,-3.5694,0,-3.5701,0,-3.5698,-3.5696,-3.5696,0,0,0,-3.5667,-3.5682,-3.568,-3.5672,-3.567,-3.5676,-3.5672,-3.5686,-3.5687,-3.5696,-3.5701,-3.5702,-3.5698,-3.5696,-3.5696,-3.5749,-3.575,0,0,-3.5666,-3.5675,-3.568,-3.5681,-3.5679,-3.5672,-3.5673,-3.5686,-3.5693,-3.5701,-3.5702,-3.5699,-3.5696,-3.5696,-3.5749,-3.5749,0,0,0,-3.5667,-3.5674,-3.5672,-3.5681,-3.5681,-3.5672,-3.5673,-3.5693,-3.5691,-3.5702,-3.5699,-3.5696,-3.5697,-3.5748,-3.5749,-3.5774,0,0,0,-3.5667,-3.5675,-3.5672,-3.5677,-3.5681,-3.5687,-3.5679,-3.569,-3.5692,-3.5699,-3.5696,-3.5697,-3.5748,-3.5749,-3.5773,-3.5784,0,0,0,-3.5669,-3.5675,-3.5677,-3.5678,-3.5681,-3.5686,-3.5686,-3.5691,-3.569,-3.5696,-3.5697,-3.5748,-3.5749,-3.5771,-3.5782,-3.58,0,0,0,-3.5675,-3.57,-3.5678,-3.5706,-3.5681,-3.5702,-3.5685,-3.5701,-3.571,-3.5696,-3.5748,-3.5749,-3.5771,-3.578,-3.5798,-3.5815,-3.5823,0,0,-3.5711,-3.5705,-3.572,-3.5701,-3.5728,-3.5701,-3.5732,-3.5732,-3.5726,-3.5742,-3.5744,-3.5773,-3.5782,-3.5799,-3.5869,-3.5876,0,0,0,-3.5735,-3.5746,-3.5751,-3.5759,-3.5761,-3.5763,-3.5757,-3.5758,-3.5771,-3.5736,-3.5785,-3.579,-3.58,-3.5808,-3.5813,-3.5821,-3.5753,-3.5753,-3.5753,-3.5796,-3.5787,-3.5813,-3.5805,-3.5814,-3.5809,-3.5815,-3.5816,-3.5804,-3.5816,-3.582,-3.5863,-3.5872,-3.5876,-3.5885,-3.583,-3.583,-3.583,-3.583,-3.5848,-3.5862,-3.5847,-3.5866,-3.5857,-3.5874,-3.5872,-3.5864,-3.5879,-3.5859,-3.5868,-3.5845,-3.5884,-3.5891,-3.5832,-3.5832,-3.5831,-3.5831,-3.5831,-3.5885,-3.589,-3.5891,-3.5903,-3.5914,-3.5907,-3.5922,-3.5914,-3.5907,-3.5915,-3.5918,-3.5918,-3.5915,-3.5918,-3.5918,-3.5918,-3.5918,-3.5919,-3.5919,-3.5923,-3.5923,-3.5936,-3.5941,-3.5946,-3.5952,-3.595,-3.5955,-3.5959,-3.5952,-3.5952,-3.5939,-3.589,-3.5876,-3.5921,-3.592,-3.592,-3.592,-3.592,-3.5974,-3.5962,-3.5981,-3.5987,-3.5993,-3.6005,-3.5996,-3.6008,-3.6012,-3.602,-3.6006,-3.5972,-3.5964,-3.596,-3.5948,-3.6009,-3.6009,-3.6009,-3.6009,-3.6004,-3.6,-3.6019,-3.6028,-3.6037,-3.6031,-3.6056,-3.6056,-3.6055,-3.6057,-3.6048,-3.6033,-3.6029,-3.6024,-3.6018,-3.6007,-3.6081,-3.6081,-3.6081,-3.6034,-3.6032,-3.6052,-3.605,-3.6055,-3.6061,-3.6083,-3.6096,-3.6092,-3.6084,-3.6058,-3.6055,-3.6031,-3.6024,-3.6012,-3.6003,-3.5983,0,0]},{"header":{"parameterUnit":"m.s-1","parameterCategory":1,"la1":30.2992,"la2":30.254,"lo1":-89.0895,"lo2":-89.0443,"dy":0.0025,"dx":0.0025,"nx":19,"ny":19,"refTime":"2026-03-06T03:00:00:Z","depth":0,"parameterNumber":3,"parameterNumberName":"V-component_of_WINDS"},"data":[0,0,0,2.4444,2.4444,2.446,2.446,2.4464,2.4464,0,0,0,0,0,0,0,0,0,0,0,2.4431,2.443,2.4444,2.4444,2.446,2.446,2.4464,2.4464,0,0,0,0,0,0,0,0,0,0,0,2.4431,2.443,2.443,2.4444,2.446,2.446,2.4464,2.4457,0,0,0,0,0,0,0,0,0,0,2.4445,2.4424,2.443,2.443,2.4444,2.446,2.446,2.4457,2.4458,2.445,0,2.4442,0,2.4453,2.4463,2.4463,0,0,0,2.445,2.4423,2.4436,2.443,2.4444,2.446,2.4455,2.4458,2.4458,2.445,2.4442,2.4443,2.4453,2.4463,2.4463,2.4404,2.4404,0,0,2.4449,2.4428,2.4436,2.4436,2.4434,2.4454,2.4455,2.4458,2.4447,2.4442,2.4443,2.4453,2.4463,2.4463,2.4405,2.4404,0,0,0,2.4443,2.4427,2.444,2.4435,2.444,2.4454,2.4456,2.4447,2.4453,2.4443,2.4453,2.4463,2.4463,2.4405,2.4404,2.4359,0,0,0,2.4443,2.4423,2.4439,2.4426,2.444,2.4444,2.4444,2.4453,2.4454,2.4453,2.4463,2.4463,2.4406,2.4405,2.4362,2.4341,0,0,0,2.4432,2.4422,2.4422,2.4425,2.4432,2.4444,2.4451,2.4454,2.446,2.4463,2.4463,2.4406,2.4405,2.4364,2.4345,2.4321,0,0,0,2.4415,2.4378,2.4421,2.4384,2.4432,2.4417,2.4451,2.444,2.4437,2.4463,2.4406,2.4405,2.4365,2.4347,2.4324,2.4299,2.4286,0,0,2.4357,2.4371,2.4351,2.4389,2.4362,2.4416,2.4381,2.4397,2.4415,2.4406,2.4405,2.4361,2.4345,2.4322,2.4221,2.4211,0,0,0,2.4325,2.4311,2.4308,2.4307,2.432,2.433,2.4354,2.4361,2.4355,2.4407,2.4346,2.4337,2.4324,2.4313,2.4305,2.4296,2.4398,2.4398,2.4399,2.4212,2.4241,2.4211,2.4242,2.4239,2.4266,2.4267,2.428,2.4306,2.4291,2.4289,2.4225,2.4211,2.4205,2.4195,2.4277,2.4277,2.4277,2.4277,2.4131,2.4116,2.4156,2.4142,2.4172,2.4159,2.4184,2.4203,2.4196,2.4228,2.4218,2.4252,2.4193,2.4186,2.4274,2.4274,2.4275,2.4275,2.4275,2.4061,2.406,2.407,2.4073,2.4072,2.4103,2.4096,2.4122,2.4146,2.4136,2.4138,2.4139,2.4145,2.4135,2.4135,2.4135,2.4135,2.4135,2.4134,2.3985,2.3999,2.399,2.4004,2.4008,2.4017,2.4045,2.4049,2.4061,2.408,2.4081,2.4109,2.4182,2.4201,2.4131,2.4132,2.4132,2.4132,2.4133,2.3895,2.3921,2.3907,2.3911,2.3932,2.393,2.3964,2.3971,2.3978,2.3974,2.4005,2.4054,2.4069,2.4076,2.4092,2.3999,2.3999,2.3999,2.3999,2.3837,2.3848,2.3843,2.3848,2.3857,2.3888,2.3872,2.3895,2.3921,2.3928,2.3945,2.3967,2.3973,2.3985,2.3994,2.4009,2.3897,2.3896,2.3896,2.3784,2.3798,2.378,2.3809,2.3828,2.3842,2.3829,2.3833,2.3868,2.3893,2.3934,2.3938,2.3975,2.3985,2.401,2.4023,2.4051,0,0]}]]